Theta_e
315 313 312 314 315 316 317 316 316 317 318 319 318 319 317 318 319 317 318 317 318 319 322 331 351 353 352 350 349 348 352 351 351 353 348 347 346 348 348 344 340 336 333 326
316 313 314 315 316 317 316 316 317 318 319 319 317 318 318 319 320 319 319 319 317 319 318 327 348 352 352 351 349 348 349 351 352 353 349 347 351 339 336 335 333 333 331 327
316 317 318 318 317 318 317 317 317 318 317 316 317 317 317 318 319 319 319 318 319 320 321 326 345 351 352 351 350 349 349 353 354 353 348 348 353 340 335 334 333 332 328 327
318 318 319 318 320 319 318 318 318 318 317 315 317 316 315 317 318 318 317 317 317 317 319 323 351 351 352 351 349 348 353 353 353 351 347 348 352 340 335 333 332 329 328 327
320 319 319 320 320 319 319 319 318 318 317 318 317 314 315 317 317 319 319 318 319 319 317 320 351 351 351 351 350 349 352 352 351 349 346 347 350 342 335 332 330 329 328 327
318 319 318 319 319 319 319 319 318 317 315 317 317 317 318 316 317 318 319 325 324 320 319 318 340 351 351 350 349 349 350 350 350 350 346 346 350 341 335 332 331 330 329 328
319 319 318 319 319 319 318 316 320 318 316 317 316 318 317 317 319 319 320 328 327 326 325 326 330 340 350 350 348 348 348 352 350 350 347 348 348 338 334 333 332 330 329 330
320 320 319 316 315 314 322 323 323 320 320 319 318 319 317 324 324 326 322 325 326 325 326 325 326 332 337 346 347 346 347 344 346 347 349 350 346 338 336 335 336 333 331 327
319 319 315 315 312 313 318 323 323 324 323 323 321 321 321 329 329 329 326 322 319 320 325 323 327 330 335 334 333 336 342 339 349 348 341 344 346 340 338 337 334 332 334 333
312 312 313 312 313 312 312 313 324 324 326 326 323 323 329 331 329 328 327 325 321 320 315 325 329 331 332 341 341 337 331 330 338 331 345 343 346 342 338 336 333 333 335 338
310 313 311 311 312 310 310 309 312 320 323 327 326 322 330 327 325 324 323 322 321 319 316 321 324 329 331 331 336 333 330 335 337 332 328 345 347 342 340 338 337 335 334 335
311 310 310 310 309 310 310 309 309 316 318 319 324 324 330 326 325 323 321 320 318 317 316 316 324 324 329 330 330 334 334 331 333 335 340 336 337 344 337 333 334 335 335 334
308 308 306 306 307 309 309 308 309 310 314 315 317 319 327 327 325 324 323 321 318 317 317 315 321 322 326 328 330 329 333 335 335 329 329 331 333 332 342 341 341 339 339 333
306 306 307 307 307 307 308 309 308 308 309 311 311 311 312 326 324 322 323 321 316 318 316 314 317 318 325 327 328 328 328 333 334 336 327 328 338 331 339 339 339 339 334 335
306 308 309 310 310 308 309 308 308 308 307 307 307 306 306 312 323 320 319 321 319 319 316 315 315 311 315 325 326 327 326 330 332 335 335 330 328 325 329 339 341 339 335 335
310 310 310 311 310 308 308 308 308 308 308 307 307 305 305 306 317 316 317 316 316 313 313 313 312 311 312 316 321 322 326 326 330 333 337 335 337 337 336 339 341 338 336 335
311 310 310 310 308 308 308 308 308 308 307 307 308 306 307 307 307 310 311 316 314 312 311 310 311 311 312 312 313 317 320 325 327 331 332 333 325 330 322 324 338 337 335 333
308 308 307 307 307 309 307 307 310 309 309 312 314 312 311 312 311 308 311 311 312 312 312 311 311 311 311 312 313 311 316 325 325 328 327 329 330 337 335 336 337 336 335 333
307 308 308 305 308 307 307 310 312 311 311 311 312 312 311 311 311 310 311 310 311 311 311 312 311 311 311 312 314 312 316 323 324 329 327 325 327 330 337 335 335 335 334 334
309 308 308 308 306 306 311 311 309 310 310 310 310 310 309 309 312 312 311 311 310 311 311 311 311 310 310 311 311 316 321 322 323 323 325 324 325 326 331 336 336 335 335 333
310 310 309 309 313 311 312 310 309 312 309 311 310 309 309 309 308 309 310 312 311 311 311 311 311 310 310 310 310 310 319 321 321 321 325 322 322 324 325 329 335 336 335 334
311 310 309 311 312 314 312 311 311 309 309 309 308 307 307 307 307 307 308 309 311 310 310 310 311 311 311 310 308 310 316 318 318 321 323 320 318 319 322 325 329 335 334 334
310 312 310 310 310 309 308 308 307 305 305 306 306 306 305 306 305 306 306 307 308 309 309 310 310 310 310 310 309 309 315 318 320 321 320 318 316 315 316 320 320 324 327 327
308 308 308 310 310 309 307 306 305 305 304 305 305 305 305 306 305 306 306 307 307 309 308 309 309 309 309 309 309 311 312 317 318 318 319 317 316 313 313 313 313 314 313 312
306 307 309 309 309 306 306 304 305 304 304 305 305 304 304 304 305 305 306 306 307 308 309 308 308 308 309 309 310 310 316 317 315 316 318 316 315 311 308 310 311 312 311 311
310 309 308 307 306 306 306 305 304 305 305 304 304 304 303 304 305 306 306 305 306 307 308 308 308 310 309 309 310 311 313 314 314 316 317 317 314 311 308 307 308 311 313 314
Wind_Speed
8 4 7 11 10 11 13 10 10 9 10 3 8 8 11 17 16 9 8 9 9 17 11 21 30 38 42 45 47 42 37 33 31 26 23 20 20 19 28 24 21 19 16 21
7 10 12 13 14 16 17 15 11 9 13 8 9 11 10 7 6 7 8 8 10 7 11 15 26 34 39 41 47 46 40 40 38 34 30 22 21 26 26 25 21 18 18 20
10 11 17 17 14 13 10 8 8 8 9 10 6 10 10 9 6 7 9 8 9 8 9 10 15 29 34 37 39 42 44 46 47 40 35 25 21 22 24 25 24 25 22 22
11 13 18 17 14 13 10 9 10 9 8 7 4 12 9 8 11 9 9 11 10 10 8 6 13 25 35 40 49 54 48 49 49 48 44 35 30 19 23 29 28 26 24 22
14 12 13 16 15 14 11 10 12 10 10 3 5 4 6 8 9 11 16 15 18 17 11 8 19 30 36 40 40 43 48 52 44 50 52 48 39 32 27 29 27 23 22 21
14 14 13 15 20 19 15 9 11 5 3 9 5 8 11 6 9 9 10 1 7 24 19 9 19 33 32 36 38 41 42 44 45 48 49 49 41 37 38 32 24 19 19 21
11 17 12 16 13 14 13 5 3 4 4 8 9 11 10 9 12 12 8 2 7 8 9 7 10 15 29 34 36 35 42 40 42 43 43 40 40 41 39 35 25 11 20 23
4 7 5 15 11 10 9 2 2 9 6 9 11 17 8 9 14 20 8 9 8 9 8 8 9 9 16 13 14 8 8 16 17 26 30 38 42 47 47 41 34 21 39 33
5 4 11 10 14 7 7 5 6 2 6 3 3 8 7 19 21 21 19 19 20 24 21 10 9 12 12 16 12 18 17 15 10 11 9 18 35 44 42 43 41 48 43 32
8 6 7 12 11 6 11 11 5 5 4 7 3 4 2 10 14 15 19 18 20 23 27 24 10 18 28 12 8 21 32 36 32 19 27 19 29 38 41 45 41 45 47 39
6 2 6 8 7 15 13 7 5 3 6 3 2 5 5 7 7 13 14 17 17 20 23 21 20 19 26 27 10 9 11 18 31 22 30 29 31 45 47 43 45 42 43 44
3 2 3 11 10 15 13 13 7 2 6 3 1 5 5 8 8 10 9 11 15 18 24 23 14 22 19 24 24 12 11 13 29 35 37 38 28 39 37 42 37 43 44 38
4 3 5 7 6 4 5 13 9 3 2 3 2 6 6 9 9 8 9 13 13 17 11 18 16 11 16 22 22 27 23 15 11 31 31 33 35 25 25 32 37 42 43 46
5 2 3 4 9 13 14 16 15 4 1 5 5 11 11 5 6 4 3 6 7 4 21 16 16 16 17 20 22 27 30 29 29 7 41 39 44 49 46 51 47 41 46 44
4 2 6 9 15 12 16 16 15 12 12 8 8 10 11 4 7 8 10 10 11 9 12 7 11 16 21 19 24 25 28 28 31 31 30 39 31 25 23 30 33 36 38 40
2 3 5 5 15 13 13 16 13 13 13 11 14 12 12 8 7 8 8 8 9 10 11 9 6 12 15 22 22 23 21 25 26 24 23 18 13 14 4 9 36 32 34 40
8 5 2 5 8 12 9 7 12 11 11 7 10 8 7 10 10 6 9 11 13 12 12 7 3 5 16 22 24 23 27 17 19 18 16 10 5 15 23 25 31 40 39 32
6 4 3 5 5 5 6 9 10 10 8 12 13 15 10 13 18 8 8 6 9 10 9 6 6 8 15 21 28 26 26 15 15 15 15 17 14 8 21 25 30 32 36 41
9 4 3 3 4 9 7 11 10 4 7 12 12 15 16 18 14 11 16 12 7 5 5 8 7 7 10 15 22 25 19 17 13 7 12 14 14 7 15 22 28 29 28 29
10 8 5 2 1 4 1 14 15 8 5 11 11 12 14 15 8 4 9 13 14 9 2 6 6 2 5 12 18 22 15 15 13 15 9 11 13 13 7 20 23 26 27 30
3 3 2 2 3 6 7 14 13 2 5 10 11 8 9 7 5 9 12 6 18 17 15 9 8 9 6 6 13 18 16 15 15 17 10 12 11 11 12 5 15 23 24 26
1 1 2 1 3 5 9 4 2 5 11 11 10 11 13 13 15 16 14 13 11 15 19 20 11 8 7 6 8 16 16 14 16 11 10 12 12 10 10 9 3 15 17 20
2 1 2 1 4 8 5 1 3 7 10 11 14 14 14 15 17 16 18 15 13 16 17 24 17 15 15 12 12 15 15 13 11 4 9 10 11 12 10 7 8 10 8 7
7 6 2 2 3 5 11 5 10 11 13 14 15 16 16 16 17 17 14 15 13 19 16 19 17 14 16 17 19 19 15 12 7 6 3 2 4 10 15 18 15 17 15 15
5 7 5 5 5 14 3 14 14 16 15 15 15 16 17 18 18 18 16 13 16 19 19 15 18 19 20 19 19 19 10 9 8 10 10 7 4 5 12 18 20 22 23 21
2 2 1 4 7 8 12 12 14 15 15 15 18 17 18 17 18 16 14 17 19 17 17 14 18 13 14 18 21 7 11 12 10 10 16 13 8 6 9 15 16 18 23 23
Wind_Direction
228 211 240 233 224 244 265 265 273 280 279 277 273 290 260 245 226 206 238 260 242 230 222 210 168 162 159 163 158 172 170 172 181 179 184 184 189 178 172 178 180 182 182 169
252 219 237 239 233 230 241 255 272 281 284 281 296 291 286 297 263 198 226 277 262 237 234 204 170 161 158 164 168 172 174 173 181 184 185 191 202 173 171 172 175 184 183 178
226 244 221 236 247 251 251 238 252 254 287 296 328 292 294 287 278 290 280 243 269 263 251 209 170 162 165 165 167 170 178 179 180 183 182 182 208 180 172 173 174 183 185 185
238 245 255 259 240 232 234 245 271 270 248 247 209 282 289 278 268 269 252 267 261 268 253 211 171 166 168 173 175 181 178 177 180 177 179 179 192 185 177 174 175 180 190 193
268 273 275 276 273 275 253 245 249 245 264 293 283 261 262 277 282 263 246 244 254 259 235 218 171 180 183 175 178 180 178 180 180 181 179 179 188 188 180 173 176 180 191 195
273 278 268 279 288 288 297 280 248 253 232 262 233 242 263 257 256 277 284 276 271 239 230 237 185 183 184 186 182 185 182 185 186 187 183 176 179 175 161 162 167 177 196 204
271 256 272 320 309 309 288 318 287 302 267 252 215 248 260 263 272 259 265 113 68 58 54 55 32 178 189 190 190 189 184 186 191 193 184 174 170 163 155 157 155 189 208 214
325 293 15 358 17 335 314 21 272 236 229 252 232 245 253 9 352 6 216 147 66 53 44 39 63 67 87 112 132 109 213 238 227 206 183 170 163 165 173 173 166 187 223 214
342 266 335 353 360 354 324 327 300 12 318 288 229 318 305 27 19 17 30 35 27 4 350 12 36 77 98 139 176 205 255 317 265 260 199 166 167 177 185 182 183 184 207 208
15 317 321 351 337 326 10 328 357 353 325 271 260 249 281 29 35 26 14 18 10 10 1 357 26 46 53 68 192 189 198 219 240 246 255 209 185 182 185 184 194 204 202 206
32 346 338 2 7 329 331 330 319 199 217 241 332 284 127 99 69 71 33 14 10 357 354 346 357 39 52 56 64 228 223 227 234 215 213 223 202 192 194 189 197 197 205 207
50 291 302 305 306 286 271 279 275 221 281 300 161 264 55 84 52 45 39 42 12 359 351 327 344 13 35 47 58 96 190 216 221 221 208 218 249 199 196 196 199 197 206 206
3 348 340 325 307 7 28 337 322 322 21 276 245 270 193 113 80 57 26 11 14 353 345 318 328 9 23 30 43 26 28 7 276 223 210 215 235 267 202 206 219 211 213 201
77 25 223 244 280 289 304 318 315 316 304 276 272 311 318 77 101 124 175 164 157 228 290 327 341 318 357 22 34 32 14 12 2 345 209 216 200 207 207 212 208 205 199 196
102 250 294 301 311 311 317 311 316 325 316 297 283 292 301 290 200 219 228 210 199 226 257 267 312 317 354 8 28 23 19 11 15 20 179 202 213 213 216 213 208 195 192 196
58 260 297 310 306 303 293 300 297 285 281 292 311 267 274 274 220 214 218 187 203 198 215 182 205 315 4 0 6 6 14 12 14 22 28 165 172 234 83 251 190 183 189 194
172 179 206 261 280 302 300 287 303 320 309 291 305 288 330 336 319 256 226 196 210 207 215 164 190 352 355 353 353 354 351 10 15 34 8 33 114 146 145 190 210 187 193 196
231 249 231 262 313 294 252 297 320 265 303 16 16 1 1 354 329 39 31 42 82 91 97 92 70 18 343 338 337 336 342 3 11 47 20 356 25 189 197 196 194 190 190 197
192 202 265 191 239 268 303 48 25 92 309 9 2 350 358 352 329 34 12 0 29 73 112 111 80 42 359 336 328 312 325 340 356 61 43 7 344 13 200 199 203 200 198 201
184 192 179 289 246 261 73 7 356 289 228 7 360 349 347 347 357 322 346 340 333 317 329 151 147 133 285 321 328 331 310 327 343 9 64 11 342 331 355 220 214 219 218 218
351 341 129 289 217 259 32 348 337 266 291 342 336 328 332 326 300 307 321 310 313 324 326 296 219 199 211 281 317 327 311 308 319 338 8 356 359 325 316 305 234 232 229 215
297 332 227 263 221 262 9 308 353 304 318 326 334 332 322 314 310 308 304 303 287 298 308 320 336 334 280 226 303 297 290 291 295 325 340 358 12 1 336 309 270 216 224 219
41 139 231 200 253 329 64 302 358 352 321 318 323 313 303 297 295 290 291 292 289 286 287 297 296 303 302 299 269 281 275 263 275 322 9 347 19 42 42 59 88 103 140 161
335 334 230 281 255 7 329 14 346 331 311 305 300 295 290 288 292 287 282 289 279 279 267 262 291 281 276 289 300 272 288 240 243 257 152 9 27 46 72 80 88 94 93 95
250 300 326 289 319 343 270 336 310 307 302 297 303 301 295 292 288 283 280 273 279 275 263 248 261 277 279 275 288 286 225 218 238 241 197 140 141 100 88 80 80 87 87 96
120 161 228 251 328 278 283 295 301 302 302 311 304 302 299 290 282 279 273 263 272 269 274 283 286 269 296 293 283 265 219 212 214 214 181 172 157 140 115 107 96 98 97 100